Location: Clermont
(50.2608°N, 4.3172°E)
Time: 14:34:08
(UTC+00:00)

USA 267 - Pass Details

Date: 13 August 2020
Orbit: 1102 x 1106 km, 123.0° (Epoch: 18 September)

Event Time Altitude Azimuth Distance (km) Brightness Sun altitude
Rises 22:58:07 0° 63° (ENE) 3,926 6.3 -24.5°
Reaches altitude 10° 23:00:37 10° 60° (ENE) 2,967 5.7 -24.6°
Maximum altitude 23:07:02 61° 342° (NNW) 1,242 3.7 -24.8°
Drops below altitude 10° 23:13:28 10° 265° (W) 2,964 5.5 -25.0°
Sets 23:15:58 0° 262° (W) 3,921 6.2 -25.1°
